When you browse on this site, cookies collect data to enhance your experience and personalize the content and advertising you see.
Visit our Privacy Policy to learn more. By continuing to use the site, you agree to this use of cookies and data.
  • Em Portugal
  • Lista de países
  • Para 7 dias
  • Temperatura da água
  • Mapas de satélite
  • Mapa do tempo
  • Widgets de tempo
  • user-avatar
    Iniciar Sessão

    Previsão horária em Kepina

    Hoje, 24 Fevereiro, Domingo

    Tempo Temperatura Precipitação Vento Pressão Humidade
    00:00 -2°C° 0 mm 3 m/s 774 mmHg 46%
    01:00 -2°C° 0 mm 3 m/s 773 mmHg 46%
    02:00 -2°C° 0.1 mm 3 m/s 773 mmHg 53%
    03:00 -2°C° 0.1 mm 3 m/s 773 mmHg 59%
    04:00 -2°C° 0.1 mm 3 m/s 772 mmHg 66%
    05:00 -2°C° 0 mm 3 m/s 772 mmHg 65%
    06:00 -2°C° 0 mm 3 m/s 772 mmHg 64%
    07:00 -2°C° 0 mm 3 m/s 772 mmHg 63%
    08:00 -1°C° 0 mm 3 m/s 772 mmHg 60%
    09:00 +1°C° 0 mm 3 m/s 771 mmHg 57%
    10:00 +2°C° 0 mm 3 m/s 771 mmHg 53%
    11:00 +3°C° 0 mm 3 m/s 771 mmHg 53%
    12:00 +4°C° 0 mm 3 m/s 771 mmHg 53%
    13:00 +7°C° 0 mm 3 m/s 771 mmHg 53%
    14:00 +5°C° 0 mm 3 m/s 771 mmHg 57%
    15:00 +4°C° 0 mm 3 m/s 770 mmHg 61%
    16:00 +5°C° 0 mm 2 m/s 770 mmHg 65%
    17:00 +3°C° 0 mm 3 m/s 770 mmHg 66%
    18:00 +2°C° 0 mm 3 m/s 770 mmHg 68%
    19:00 +1°C° 0 mm 3 m/s 770 mmHg 69%
    20:00 +1°C° 0 mm 3 m/s 770 mmHg 71%
    21:00 0°C° 0 mm 3 m/s 770 mmHg 74%
    22:00 0°C° 0 mm 3 m/s 770 mmHg 76%
    23:00 0°C° 0 mm 3 m/s 770 mmHg 81%

    Amanhã, 25 Fevereiro, Segunda-feira

    Tempo Temperatura Precipitação Vento Pressão Humidade
    00:00 0°C° 0 mm 3 m/s 770 mmHg 86%
    01:00 0°C° 0 mm 3 m/s 770 mmHg 91%
    02:00 0°C° 0 mm 3 m/s 769 mmHg 93%
    03:00 0°C° 0 mm 3 m/s 769 mmHg 94%
    04:00 0°C° 0 mm 3 m/s 769 mmHg 96%
    05:00 0°C° 0 mm 3 m/s 769 mmHg 96%
    06:00 +1°C° 0 mm 2 m/s 769 mmHg 96%
    07:00 +2°C° 0 mm 2 m/s 769 mmHg 96%
    08:00 +2°C° 0 mm 3 m/s 769 mmHg 93%
    09:00 +3°C° 0 mm 3 m/s 770 mmHg 90%
    10:00 +4°C° 0 mm 3 m/s 770 mmHg 88%
    11:00 +4°C° 0 mm 3 m/s 770 mmHg 85%
    12:00 +5°C° 0 mm 3 m/s 769 mmHg 83%
    13:00 +7°C° 0 mm 3 m/s 769 mmHg 81%
    14:00 +5°C° 0 mm 3 m/s 769 mmHg 81%
    15:00 +5°C° 0 mm 3 m/s 769 mmHg 82%
    16:00 +5°C° 0 mm 3 m/s 769 mmHg 82%
    17:00 +5°C° 0 mm 2 m/s 769 mmHg 85%
    18:00 +4°C° 0 mm 2 m/s 769 mmHg 87%
    19:00 +2°C° 0 mm 2 m/s 769 mmHg 90%
    20:00 +2°C° 0 mm 2 m/s 768 mmHg 90%
    21:00 +2°C° 0 mm 2 m/s 768 mmHg 90%
    22:00 +1°C° 0 mm 2 m/s 768 mmHg 90%
    23:00 +1°C° 0 mm 2 m/s 768 mmHg 91%

    Depois de amanhã, 26 Fevereiro, Terça-feira

    Tempo Temperatura Precipitação Vento Pressão Humidade
    00:00 +1°C° 0 mm 2 m/s 767 mmHg 92%
    01:00 +1°C° 0 mm 2 m/s 767 mmHg 92%
    02:00 +2°C° 0 mm 2 m/s 767 mmHg 93%
    03:00 +2°C° 0 mm 2 m/s 766 mmHg 95%
    04:00 +2°C° 0 mm 2 m/s 766 mmHg 96%
    05:00 +2°C° 0 mm 3 m/s 765 mmHg 95%
    06:00 +2°C° 0 mm 3 m/s 765 mmHg 95%
    07:00 +3°C° 0 mm 3 m/s 765 mmHg 95%
    08:00 +3°C° 0 mm 3 m/s 765 mmHg 91%
    09:00 +4°C° 0 mm 3 m/s 765 mmHg 88%
    10:00 +4°C° 0 mm 4 m/s 765 mmHg 84%
    11:00 +5°C° 0 mm 4 m/s 765 mmHg 78%
    12:00 +6°C° 0 mm 5 m/s 765 mmHg 71%
    13:00 +7°C° 0 mm 5 m/s 765 mmHg 64%
    14:00 +7°C° 0 mm 5 m/s 765 mmHg 67%
    15:00 +6°C° 0 mm 5 m/s 766 mmHg 69%
    16:00 +6°C° 0 mm 4 m/s 766 mmHg 71%
    17:00 +5°C° 0 mm 4 m/s 766 mmHg 77%
    18:00 +3°C° 0 mm 3 m/s 766 mmHg 83%
    19:00 +2°C° 0 mm 3 m/s 766 mmHg 89%
    20:00 +3°C° 0 mm 2 m/s 767 mmHg 89%
    21:00 +2°C° 0 mm 2 m/s 767 mmHg 89%
    22:00 +2°C° 0 mm 2 m/s 767 mmHg 90%
    23:00 +3°C° 0 mm 1 m/s 767 mmHg 89%

    27 Fevereiro, Quarta-feira

    Tempo Temperatura Precipitação Vento Pressão Humidade
    00:00 +3°C° 0 mm 1 m/s 767 mmHg 88%
    01:00 +3°C° 0 mm 1 m/s 767 mmHg 87%
    02:00 +3°C° 0 mm 1 m/s 766 mmHg 87%
    03:00 +2°C° 0 mm 2 m/s 766 mmHg 86%
    04:00 +2°C° 0 mm 2 m/s 766 mmHg 85%
    05:00 +1°C° 0 mm 2 m/s 765 mmHg 87%
    06:00 0°C° 0 mm 3 m/s 765 mmHg 89%
    07:00 0°C° 0 mm 3 m/s 765 mmHg 91%
    08:00 +2°C° 0 mm 3 m/s 764 mmHg 86%
    09:00 +4°C° 0 mm 3 m/s 764 mmHg 81%
    10:00 +5°C° 0 mm 3 m/s 764 mmHg 76%
    11:00 +7°C° 0 mm 3 m/s 763 mmHg 72%
    12:00 +8°C° 0 mm 4 m/s 763 mmHg 68%
    13:00 +10°C° 0 mm 4 m/s 762 mmHg 64%
    14:00 +10°C° 0 mm 3 m/s 762 mmHg 65%
    15:00 +10°C° 0 mm 3 m/s 761 mmHg 66%
    16:00 +10°C° 0 mm 3 m/s 761 mmHg 67%
    17:00 +8°C° 0 mm 3 m/s 760 mmHg 71%
    18:00 +7°C° 0 mm 3 m/s 760 mmHg 75%
    19:00 +5°C° 0 mm 3 m/s 760 mmHg 79%
    20:00 +4°C° 0 mm 3 m/s 759 mmHg 80%
    21:00 +4°C° 0 mm 3 m/s 759 mmHg 82%
    22:00 +3°C° 0 mm 3 m/s 758 mmHg 84%
    23:00 +3°C° 0 mm 3 m/s 758 mmHg 84%

    28 Fevereiro, Quinta-feira

    Tempo Temperatura Precipitação Vento Pressão Humidade
    00:00 +3°C° 0 mm 3 m/s 757 mmHg 85%
    01:00 +3°C° 0 mm 3 m/s 757 mmHg 86%
    02:00 +3°C° 0 mm 3 m/s 756 mmHg 86%
    03:00 +3°C° 0 mm 4 m/s 756 mmHg 87%
    04:00 +3°C° 0 mm 4 m/s 755 mmHg 87%
    05:00 +3°C° 0 mm 4 m/s 754 mmHg 87%
    06:00 +3°C° 0 mm 4 m/s 754 mmHg 87%
    07:00 +3°C° 0 mm 4 m/s 753 mmHg 86%
    08:00 +3°C° 0 mm 5 m/s 753 mmHg 80%
    09:00 +5°C° 0 mm 6 m/s 753 mmHg 73%
    10:00 +6°C° 0 mm 7 m/s 753 mmHg 66%
    11:00 +8°C° 0 mm 7 m/s 753 mmHg 66%
    12:00 +8°C° 0 mm 7 m/s 753 mmHg 66%
    13:00 +9°C° 0 mm 7 m/s 752 mmHg 66%
    14:00 +8°C° 0 mm 7 m/s 753 mmHg 68%
    15:00 +7°C° 0 mm 6 m/s 753 mmHg 69%
    16:00 +7°C° 0 mm 6 m/s 753 mmHg 71%
    17:00 +5°C° 0 mm 5 m/s 754 mmHg 75%
    18:00 +4°C° 0 mm 4 m/s 754 mmHg 79%
    19:00 +3°C° 0 mm 3 m/s 754 mmHg 84%
    20:00 +3°C° 0 mm 3 m/s 755 mmHg 86%
    21:00 +2°C° 0 mm 3 m/s 755 mmHg 88%
    22:00 +2°C° 0 mm 3 m/s 755 mmHg 91%
    23:00 +2°C° 0 mm 3 m/s 755 mmHg 90%

    1 Março, Sexta-feira

    Tempo Temperatura Precipitação Vento Pressão Humidade
    00:00 +1°C° 0 mm 3 m/s 755 mmHg 90%
    01:00 +1°C° 0 mm 3 m/s 755 mmHg 90%
    02:00 +1°C° 0 mm 3 m/s 756 mmHg 87%
    03:00 +1°C° 0 mm 3 m/s 756 mmHg 85%
    04:00 0°C° 0 mm 3 m/s 756 mmHg 83%
    05:00 0°C° 0 mm 3 m/s 756 mmHg 83%
    06:00 0°C° 0 mm 3 m/s 757 mmHg 84%
    07:00 0°C° 0 mm 3 m/s 757 mmHg 85%
    08:00 0°C° 0 mm 4 m/s 757 mmHg 78%
    09:00 +1°C° 0 mm 4 m/s 758 mmHg 72%
    10:00 +3°C° 0 mm 5 m/s 758 mmHg 66%
    11:00 +3°C° 0 mm 5 m/s 759 mmHg 62%
    12:00 +3°C° 0 mm 5 m/s 759 mmHg 58%
    13:00 +3°C° 0 mm 5 m/s 759 mmHg 54%
    14:00 +3°C° 0 mm 5 m/s 759 mmHg 56%
    15:00 +2°C° 0 mm 5 m/s 760 mmHg 58%
    16:00 +2°C° 0 mm 5 m/s 760 mmHg 60%
    17:00 +1°C° 0 mm 4 m/s 760 mmHg 66%
    18:00 +1°C° 0 mm 3 m/s 761 mmHg 72%
    19:00 0°C° 0 mm 3 m/s 761 mmHg 77%
    20:00 -1°C° 0 mm 3 m/s 761 mmHg 79%
    21:00 -1°C° 0 mm 3 m/s 762 mmHg 81%
    22:00 -1°C° 0 mm 2 m/s 762 mmHg 83%
    23:00 -1°C° 0 mm 2 m/s 762 mmHg 82%
    Mostrar mais